Simultaneous Nadir Overpasses (SNOs) Predictions

Prediction of SNOs between NOAA-19 and METOP-C Satellite Orbit:

Table of predicted SNOs for the next 14.0 days since TLE Epoch: 6/22/2024
Index Date (NOAA-19) Time (NOAA-19) Lat,Lon (NOAA-19) SZA (NOAA-19 ) Date (METOP-C) Time (METOP-C) Lat,Lon (METOP-C) SZA (METOP-C ) Distance(km) Time Diff (sec)
1 06/25/2024 20:27:31 -79.26, 69.02 123.74 06/25/2024 20:28:33 -79.25, 68.90 123.75 2.89 62
2 06/25/2024 21:18:29 79.30,-123.40 56.32 06/25/2024 21:19:11 79.31,-123.27 56.35 2.94 42
3 06/25/2024 22:09:23 -79.41, 44.86 123.52 06/25/2024 22:09:49 -79.40, 44.78 123.53 2.08 26
4 06/25/2024 23:00:19 79.51,-146.98 56.63 06/25/2024 23:00:26 79.50,-147.10 56.62 2.74 7
5 06/25/2024 23:51:16 -79.56, 20.75 123.29 06/25/2024 23:51:06 -79.56, 20.69 123.31 1.28 10
6 06/26/2024 00:42:13 79.63,-171.35 56.81 06/26/2024 00:41:44 79.62,-171.44 56.79 1.93 29
7 06/26/2024 01:33:10 -79.68, -3.62 123.12 06/26/2024 01:32:24 -79.67, -3.64 123.13 0.48 46



Historial Predications of SNOs between NOAA-19 and METOP-C
